TimeCDT,TemperatureF,Dew PointF,Humidity,Sea Level PressureIn,VisibilityMPH,Wind Direction,Wind SpeedMPH,Gust SpeedMPH,PrecipitationIn,Events,Conditions,WindDirDegrees,DateUTC
12:58 AM,57,53,84,29.86,6,Calm,Calm,,,,Partly Cloudy,,2012-10-18 05:58:00
3:58 AM,54,51,85,29.92,6,Calm,Calm,,,,Scattered Clouds,,2012-10-18 08:58:00
5:50 AM,48.2,44.6,87,30.22,10.0,Calm,Calm,-,N/A,,Clear,0,2012-10-18 10:50:00
6:49 AM,46.4,42.8,87,29.97,4.0,Calm,Calm,-,N/A,,Clear,0,2012-10-18 11:49:00
6:55 AM,52,48,82,29.97,6,Calm,Calm,,,,,,2012-10-18 11:55:00
7:22 AM,46.4,42.8,87,30.22,0.1,NNW,4.6,-,N/A,Fog,Fog,340,2012-10-18 12:22:00
7:43 AM,46.4,44.6,93,30.24,0.1,Calm,Calm,-,N/A,Fog,Fog,0,2012-10-18 12:43:00
8:47 AM,50.0,48.2,94,30.25,0.5,Calm,Calm,-,N/A,Fog,Fog,0,2012-10-18 13:47:00
9:26 AM,50.0,48.2,94,30.25,0.1,Calm,Calm,-,N/A,Fog,Fog,0,2012-10-18 14:26:00
9:40 AM,54,50,81,30.04,19,Calm,Calm,,,,Clear,,2012-10-18 14:40:00
9:52 AM,53.6,51.8,94,29.96,0.1,Calm,Calm,-,N/A,Fog,Fog,0,2012-10-18 14:52:00
10:21 AM,57.2,55.4,94,30.28,6.0,Calm,Calm,-,N/A,,Partly Cloudy,0,2012-10-18 15:21:00
10:50 AM,60.8,55.4,82,30.28,14.0,Calm,Calm,-,N/A,,Clear,0,2012-10-18 15:50:00
11:48 AM,69.8,50.0,49,30.27,14.0,Calm,Calm,-,N/A,,Clear,0,2012-10-18 16:48:00
12:40 PM,71,51,37,29.99,19,Calm,Calm,,,,Scattered Clouds,,2012-10-18 17:40:00
12:51 PM,73.4,48.2,41,29.86,14.0,East,9.2,-,N/A,,Clear,100,2012-10-18 17:51:00
1:50 PM,77.0,48.2,36,30.24,14.0,East,6.9,-,N/A,,Clear,100,2012-10-18 18:50:00
2:42 PM,78.8,48.2,34,30.20,14.0,NNE,6.9,-,N/A,,Clear,20,2012-10-18 19:42:00
3:40 PM,80,48,22,29.83,25,ESE,4.5,,,,Scattered Clouds,120,2012-10-18 20:40:00
3:48 PM,80.6,46.4,30,29.78,14.0,North,6.9,-,N/A,,Clear,350,2012-10-18 20:48:00
4:44 PM,80.6,46.4,30,30.14,14.0,Calm,Calm,-,N/A,,Clear,0,2012-10-18 21:44:00
5:42 PM,80.6,46.4,30,30.12,14.0,NNE,5.8,-,N/A,,Clear,30,2012-10-18 22:42:00
6:48 PM,78.8,48.2,34,29.78,14.0,Calm,Calm,-,N/A,,Clear,0,2012-10-18 23:48:00
6:55 PM,77,46,22,29.70,19,SE,2.2,,,,Scattered Clouds,140,2012-10-18 23:55:00
7:40 PM,75.2,46.4,36,30.10,14.0,NNE,4.6,-,N/A,,Clear,20,2012-10-19 00:40:00
9:43 PM,64.4,42.8,45,30.17,10.0,WNW,6.9,-,N/A,,Clear,290,2012-10-19 02:43:00
9:45 PM,65,46,40,29.70,6,Calm,Calm,,,,,,2012-10-19 02:45:00